This is the latest recevied weather packets stored in our database for station/object K1RFS. If no packets are shown the sender has not sent any weather packets the latest 10 day(s).
| Time | Temp. | Humidity | Pressure | Rain* | Wind** | Luminosity | Snow |
|---|---|---|---|---|---|---|---|
| 1777903593 | 15.56° C | 43% | 995.6 hPa | 0 mm | - | 53 W/m² | - |
| 1777903288 | 15° C | 43% | 995.7 hPa | 0 mm | - | 54 W/m² | - |
| 1777902985 | 15° C | 45% | 995.7 hPa | 0 mm | - | 54 W/m² | - |
| 1777902682 | 14.44° C | 45% | 995.7 hPa | 0 mm | - | 51 W/m² | - |
| 1777902379 | 14.44° C | 45% | 995.8 hPa | 0 mm | - | 48 W/m² | - |
| 1777902076 | 14.44° C | 46% | 995.8 hPa | 0 mm | - | 46 W/m² | - |
| 1777901774 | 13.89° C | 46% | 995.8 hPa | 0 mm | - | 44 W/m² | - |
| 1777901471 | 13.89° C | 46% | 995.8 hPa | 0 mm | - | 40 W/m² | - |
| 1777901169 | 13.89° C | 47% | 995.8 hPa | 0 mm | - | 35 W/m² | - |
| 1777900866 | 13.33° C | 46% | 995.7 hPa | 0 mm | - | 30 W/m² | - |
| 1777900563 | 13.33° C | 47% | 995.6 hPa | 0 mm | - | 25 W/m² | - |
| 1777900260 | 13.33° C | 48% | 995.8 hPa | 0 mm | - | 22 W/m² | - |
| 1777899956 | 12.78° C | 48% | 995.8 hPa | 0 mm | - | 20 W/m² | - |
| 1777899654 | 12.22° C | 49% | 995.8 hPa | 0 mm | - | 18 W/m² | - |
| 1777899351 | 12.22° C | 48% | 995.8 hPa | 0 mm | - | 15 W/m² | - |
| 1777899049 | 12.22° C | 48% | 995.9 hPa | 0 mm | - | 12 W/m² | - |
| 1777898745 | 12.22° C | 48% | 995.7 hPa | 0 mm | - | 9 W/m² | - |
| 1777898443 | 12.22° C | 48% | 995.6 hPa | 0 mm | - | 6 W/m² | - |
| 1777898141 | 12.78° C | 48% | 995.6 hPa | 0 mm | - | 4 W/m² | - |
| 1777897837 | 12.78° C | 47% | 995.8 hPa | 0 mm | - | 3 W/m² | - |
| 1777897533 | 12.78° C | 47% | 995.6 hPa | 0 mm | - | 2 W/m² | - |
| 1777897229 | 12.78° C | 47% | 995.7 hPa | 0 mm | - | 1 W/m² | - |
| 1777896925 | 13.33° C | 47% | 995.7 hPa | 0 mm | - | 0 W/m² | - |
| 1777896623 | 13.33° C | 48% | 995.7 hPa | 0 mm | - | 0 W/m² | - |
| 1777896320 | 13.33° C | 48% | 995.6 hPa | 0 mm | - | 0 W/m² | - |
* Rain latest hour (hover to see other rain measurements)
** Current wind speed in m/s (hover to see current wind gust speed)